{"data":{"norad_id":51755,"epoch":"2026-05-25T04:49:09.996960Z","epoch_age_seconds":57869,"freshness":"FRESH","line1":"1 51755U 22016AT  26145.20081015 -.00000064  00000+0  14073-4 0  9998","line2":"2 51755  53.2137 325.6498 0001272  93.5650 266.5488 15.08835389235259","mean_motion":15.08835389,"eccentricity":0.0001272,"inclination_deg":53.2137,"raan_deg":325.6498,"arg_perigee_deg":93.565,"mean_anomaly_deg":266.5488,"bstar":1.4073e-5,"rev_number":23525,"period_min":95.437846334873,"perigee_km":538.8775268041,"apogee_km":540.63743916057,"semimajor_km":6917.8944829823,"source":"CELESTRAK","updated_at":"2026-05-25T13:38:16.948323Z"}}